User: anonymous
Location: Unspecified
(0.0000°N, 0.0000°E)
Time: 15:27:28
(UTC+00:00)
Language:

X-37B - Orbit

View from above orbital plane
View from above orbital plane
View from above satellite
View from above satellite

Ground track
Ground track

The orbit data is extracted from the following two-line orbital elements,

1 39025U 12071A   14251.39124747 0.00002000  00000-0  87691-5 0    01
2 39025  43.5000 345.7872 0002000  83.8792 276.1202 15.83658722    05
Epoch (UTC): 08 September 2014 09:23:23
Eccentricity: 0.0002000
inclination: 43.5000°
perigee height: 319 km
apogee height: 321 km
right ascension of ascending node: 345.7872°
argument of perigee: 83.8792°
revolutions per day: 15.83658722
mean anomaly at epoch: 276.1202°
orbit number at epoch: 0

The dashed part of the orbit path shows where the satellite is in the earth's shadow,  

DLR